STARLINK-1172, 45074

Orbit data source: Space-Track

STARLINK-1172, 45074 is a payload satellite owned by SpaceX/Seattle (US) in LEO that was launched on Wed, 29 Jan 2020 UTC via an FALCON 9 launch vehicle from the Air Force Eastern Test Range (AFETR). Payload-class satellites include a variety of spacecraft equipped with specific instruments for various scientific and technological missions. These include communications satellites like Starlink; space stations such as the ISS; scientific satellites like the Hubble; Earth observation satellites from companies like Planet Labs, Umbra, and HawkEye 360; GPS; miniature CubeSats for education and research; and military/defense satellites.

Loading next visibility...
Identifier
45074, 2020-006AG
Orbit
LEO
Country
Flag of USUS
Related business
Manufacturer
SpaceX/Seattle
Mission
Partially operational Commercial Communications
Bus & Motor
STARLINK, Unknown motor
Mass
260 kg wet, ~248 kg dry
Launch date (UTC)
2020-01-29 (6 years ago)
Launch vehicle
FALCON 9
Launch site
Air Force Eastern Test Range (AFETR)
Object type
Payload
Rocket body
Debris
Shape & HBR
Box + 1 Pan, 10.1 m
Radar Cross Section
13.562 m², Large (>1 m²)

Expand to show TLE details & history
Last TLE update: 2 days ago

TLE from 2 days ago
0 STARLINK-1172
1 45074U 20006AG  26171.33020300  .00043765  00000-0  11012-2 0  9998
2 45074  53.1532 137.6321 0005005  23.2638 336.8592 15.39517459352632
Epoch: 2026-06-20T07:55Z
TLE epoch observation values (Epoch: 2026-06-20T07:55:29.539Z)
Latitude
-0.00004°
Longitude
110.21262°
Altitude
445.297 km
Speed
7.648 km/s
True Right ascension
09h 10m 31s
True Declination
0° 00' 00"
Sunlit
Object was in daylight at epoch
Visualization orbit readout
Latitude
Unknown
Longitude
Unknown
Altitude
Unknown
Speed
Unknown
Apparent Right ascension
Unknown
Apparent Declination
Unknown
Sunlit
N/A
Visualization observer readout
Local Sidereal Time
19:40:38
Azimuth
Unknown
Elevation
Unknown
Doppler factor
Unknown
Orbital elements
Apogee altitude
451.21 km
Perigee altitude
444.377 km
Semi-major axis
6,825.931 km
Eccentricity
0.0005
Inclination
53.1532°
RAAN
137.6321°
Arg. of periapsis
23.2638°
True anomaly
336.83665°
Mean anomaly
336.8592°
Eccentric anomaly
336.84793°
Mean motion
3.84858 °/min
Orbital period
93.54 mins
BSTAR
0.0011012
Loading maneuver chart data...
Computing Atmospheric mass density...

Documentation

Showing up to 5 results
|